ONEWEB-0296, 49085

Orbit data source: Space-Track

ONEWEB-0296, 49085 is a payload satellite owned by One Web (NAA) (UK) in LEO that was launched on Sat, 21 Aug 2021 UTC via a SOYUZ-2-1B launch vehicle from the Tyuratam Missile And Space Complex (TTMTR). Payload-class satellites include a variety of spacecraft equipped with specific instruments for various scientific and technological missions. These include communications satellites like Starlink; space stations such as the ISS; scientific satellites like the Hubble; Earth observation satellites from companies like Planet Labs, Umbra, and HawkEye 360; GPS; miniature CubeSats for education and research; and military/defense satellites.

Loading next visibility...
Identifier
49085, 2021-075L
Orbit
LEO
Country
Flag of UKUK
Related business
Manufacturer
One Web
Mission
Operational Commercial Communications
Bus & Motor
ARROW, Unknown motor
Mass
148 kg wet, ~140 kg dry
Launch date (UTC)
2021-08-21 (5 years ago)
Launch vehicle
SOYUZ-2-1B
Launch site
Tyuratam Missile And Space Complex (TTMTR)
Object type
Payload
Rocket body
Debris
Shape & HBR
Trap Box + 2 Pan, 6.7 m
Radar Cross Section
3.464 m², Large (>1 m²)

Expand to show TLE details & history
Last TLE update: 9 hours ago

TLE from 9 hours ago
0 ONEWEB-0296
1 49085U 21075L   26130.19156256 -.00000308  00000-0 -89214-3 0  9998
2 49085  87.8982 358.2180 0001553  92.9761 267.1545 13.12443420229596
Epoch: 2026-05-10T04:35Z
TLE epoch observation values (Epoch: 2026-05-10T04:35:51.005Z)
Latitude
-0.00003°
Longitude
61.2573°
Altitude
1,216.671 km
Speed
7.246 km/s
True Right ascension
23h 52m 52s
True Declination
0° 00' 00"
Sunlit
Object was in daylight at epoch
Visualization orbit readout
Latitude
Unknown
Longitude
Unknown
Altitude
Unknown
Speed
Unknown
Apparent Right ascension
Unknown
Apparent Declination
Unknown
Sunlit
N/A
Visualization observer readout
Local Sidereal Time
22:05:24
Azimuth
Unknown
Elevation
Unknown
Doppler factor
Unknown
Orbital elements
Apogee altitude
1,212.017 km
Perigee altitude
1,209.66 km
Semi-major axis
7,588.975 km
Eccentricity
0.00016
Inclination
87.8982°
RAAN
358.218°
Arg. of periapsis
92.9761°
True anomaly
267.13673°
Mean anomaly
267.1545°
Eccentric anomaly
267.14561°
Mean motion
3.28298 °/min
Orbital period
109.66 mins
BSTAR
-0.00089214
Loading maneuver chart data...
Computing Atmospheric mass density...
Loading historical data...
Loading historical data...
Loading historical data...
Loading historical data...
Loading historical data...
Loading historical data...
Loading historical data...

Documentation

Showing up to 5 results
|